Temperature
31 30 28 27 28 29 29 27 24 25 27 28 27 26 25 24 24 23 22 21 20 20 19 18 18 18 18 17 17 17 17 16 16 16 16 16 16 16 16 16 16 15 15 15
30 27 27 29 30 30 30 29 27 26 26 27 27 26 26 25 24 23 22 21 21 20 19 19 19 19 18 17 17 17 16 16 16 15 15 15 15 15 16 16 15 15 14 14
28 26 28 30 31 30 29 28 27 26 26 27 26 25 24 25 24 23 23 22 22 21 21 20 19 19 19 18 17 17 16 16 15 15 15 15 15 15 15 15 15 15 14 14
30 30 30 30 30 30 27 28 28 27 26 25 24 22 21 22 24 24 23 23 22 22 21 20 20 19 19 18 18 17 16 16 15 14 14 14 14 14 14 14 14 14 14 14
29 30 30 30 30 30 29 29 28 26 24 23 21 20 20 21 22 23 24 24 23 22 21 21 20 19 19 18 18 17 16 15 15 14 13 13 13 13 13 13 13 13 13 14
28 31 31 31 31 31 31 30 27 23 22 20 19 18 19 21 22 23 24 24 23 22 22 21 20 20 19 18 17 17 16 15 14 14 13 12 12 12 12 12 12 13 13 13
26 28 30 31 30 30 30 28 25 21 18 18 20 19 20 23 24 25 25 24 23 23 22 21 20 20 19 18 17 16 16 15 14 13 13 12 12 11 11 12 12 12 12 13
25 26 28 31 30 29 29 29 25 24 23 22 21 20 22 24 25 25 25 24 24 23 22 21 20 19 19 18 17 16 15 14 13 13 12 12 11 11 11 11 11 11 11 11
27 28 30 31 31 30 29 29 29 28 27 25 23 22 22 24 25 25 25 24 24 23 22 21 20 19 18 17 16 15 14 14 13 12 12 11 11 11 10 10 10 10 10 11
30 28 30 31 31 30 30 29 29 27 26 26 25 23 22 24 25 25 25 24 23 22 21 20 19 18 17 16 15 15 14 13 12 12 11 11 11 10 10 9 9 9 10 10
30 28 29 30 29 29 29 29 28 28 27 26 25 24 25 25 25 25 25 24 22 21 20 19 18 17 16 15 15 14 13 12 12 11 11 10 10 10 9 9 9 9 9 9
30 29 27 28 29 30 29 29 28 26 26 27 26 24 26 26 26 25 24 23 21 20 19 18 17 16 15 15 14 13 12 12 11 11 10 10 10 9 9 9 9 9 9 8
28 27 26 25 26 28 29 29 29 28 27 26 26 25 27 26 25 24 23 22 21 20 19 18 17 16 15 14 13 12 12 12 11 11 10 10 9 9 9 9 8 8 8 8
27 28 27 26 27 28 28 29 29 28 26 26 26 26 27 25 24 24 22 21 20 19 18 17 16 15 14 13 13 12 12 11 11 10 10 9 9 9 8 8 8 8 8 8
28 28 28 29 29 29 29 29 28 27 27 26 26 26 26 25 24 23 22 21 20 19 18 17 15 15 14 13 12 12 11 11 10 10 9 9 9 8 8 8 8 8 8 8
28 27 27 28 29 29 28 29 28 28 27 27 26 26 26 25 24 23 22 21 20 18 17 16 15 14 13 13 12 12 11 11 10 10 9 9 8 8 8 8 8 8 7 7
28 27 26 26 28 28 27 28 28 28 28 27 26 26 25 24 23 22 21 20 19 18 17 16 15 14 13 13 12 12 11 10 10 9 9 9 8 8 8 8 8 7 7 7
27 26 26 26 27 25 27 29 28 27 27 27 26 26 25 24 23 21 20 19 18 17 16 15 14 13 13 12 12 11 11 10 10 9 9 8 8 8 8 7 7 7 7 7
28 27 26 26 26 26 28 28 28 26 26 27 26 25 24 23 22 21 18 18 17 16 15 14 13 13 12 12 11 11 10 10 9 9 8 8 8 7 7 7 7 7 7 7
28 27 26 26 25 25 27 28 27 26 25 25 25 24 23 23 22 22 19 18 17 15 15 14 13 13 12 12 11 10 10 9 9 8 8 8 8 7 7 7 7 7 7 7
27 26 26 25 25 26 28 27 27 25 24 24 24 23 23 22 21 19 19 17 16 15 14 14 13 12 12 11 10 10 9 9 8 8 8 8 8 8 8 8 8 8 7 7
27 27 26 26 25 25 27 27 26 25 25 24 24 23 22 21 20 19 18 17 16 15 14 13 13 12 11 11 10 9 9 8 8 8 8 8 8 8 8 8 8 8 8 7
28 28 28 27 26 26 26 26 26 25 25 24 23 23 22 21 20 19 18 17 16 15 14 13 12 12 11 11 10 9 9 8 8 8 8 8 8 8 8 8 8 8 8 7
28 29 27 26 27 27 27 27 26 25 24 24 23 22 21 20 19 18 17 16 15 14 13 13 12 11 11 10 10 9 8 8 8 7 7 7 8 8 8 8 8 8 8 7
27 27 27 26 27 27 27 26 26 25 24 23 23 22 21 20 19 18 17 16 15 14 13 12 12 11 11 10 9 9 8 8 8 7 7 7 8 8 8 8 8 8 8 7
28 28 27 27 27 27 26 26 26 25 24 23 22 22 21 20 19 18 17 15 14 14 13 12 11 11 10 9 9 8 8 8 7 7 7 7 8 8 8 8 8 8 8 8
Wind_Speed
14 9 6 7 10 8 9 9 9 7 5 3 6 9 9 9 9 9 9 9 9 9 9 7 6 7 7 6 5 4 4 5 5 5 6 6 5 5 4 2 3 4 5 6
5 7 12 13 12 8 7 3 4 2 4 6 4 8 10 9 8 9 10 10 10 10 8 7 5 5 5 4 2 1 3 5 5 5 6 5 6 6 5 2 1 1 2 4
3 10 17 16 10 7 8 9 4 3 6 7 4 5 7 7 8 8 9 9 9 8 7 6 3 2 1 1 0 2 3 3 4 6 6 7 7 6 5 5 3 3 3 3
6 5 9 9 8 8 4 7 7 5 5 5 4 3 5 8 9 9 10 8 7 6 5 4 2 0 2 2 3 3 3 3 4 6 7 9 9 9 8 6 5 6 6 5
9 8 7 8 6 7 4 4 2 5 5 6 5 4 4 8 7 8 9 9 7 5 4 3 2 2 3 4 5 4 4 4 5 6 8 9 9 8 8 9 10 9 8 7
18 10 6 6 7 7 7 5 4 9 7 5 4 3 5 9 12 11 9 7 5 3 3 3 3 2 3 4 5 5 5 5 6 6 8 8 9 9 10 11 11 10 7 5
13 9 7 5 7 7 9 8 4 4 1 6 8 5 4 8 10 8 7 5 3 2 2 2 3 4 4 5 5 5 6 7 6 7 7 7 8 9 10 11 9 9 7 7
3 4 4 5 6 7 8 8 5 7 5 3 6 5 4 7 7 6 3 2 0 2 3 5 6 6 6 7 7 6 6 6 6 7 7 7 9 8 7 9 10 10 9 9
4 4 4 3 5 7 8 10 11 9 9 1 6 6 6 5 5 3 2 3 4 6 7 8 9 9 8 8 7 7 7 6 6 7 8 8 7 7 9 9 10 9 8 10
9 10 4 2 3 1 7 10 9 8 8 7 4 6 6 5 3 5 6 7 7 8 9 11 11 11 10 9 8 8 7 7 7 8 7 10 8 8 8 9 9 9 9 9
7 7 8 5 5 7 8 8 8 8 9 8 6 6 8 4 4 6 7 7 8 9 11 11 10 10 10 11 9 8 8 8 7 7 7 7 8 8 9 8 9 8 9 9
8 6 8 9 9 7 4 5 7 7 9 8 7 6 4 3 6 7 8 9 9 9 10 10 11 10 10 11 11 10 10 9 8 8 7 8 8 8 9 10 9 9 9 10
9 5 6 4 5 7 5 3 5 6 7 8 8 4 1 6 9 10 10 9 9 9 10 10 10 10 11 11 11 12 12 11 11 10 9 9 10 10 10 10 10 10 10 10
4 6 7 8 5 5 6 6 4 6 7 9 9 10 10 11 11 11 9 8 9 9 9 10 9 8 9 10 10 11 12 11 12 11 11 10 11 11 10 11 11 11 11 11
4 9 10 11 9 8 8 9 7 7 8 9 10 11 10 11 10 10 9 10 10 9 10 11 10 9 9 9 9 10 11 11 11 12 12 11 11 11 11 11 11 12 12 14
1 6 11 13 12 10 10 10 8 6 7 9 10 10 10 11 11 11 11 10 9 9 11 12 12 12 11 10 10 10 10 10 10 11 12 12 12 12 12 12 12 12 12 12
5 6 10 13 12 12 10 6 3 5 8 8 10 9 10 11 11 11 10 8 8 10 12 12 13 11 10 10 9 10 10 11 11 11 12 12 12 13 13 15 14 14 13 13
7 7 7 12 14 14 8 1 2 3 5 7 8 6 9 10 9 8 8 8 9 10 12 12 13 13 12 12 11 10 12 11 12 12 13 13 13 15 14 14 14 14 12 12
9 6 8 10 13 12 5 3 2 2 8 7 4 7 10 11 11 6 8 7 8 9 10 11 12 13 12 12 11 12 13 12 13 14 13 14 15 15 15 15 15 13 12 12
7 7 8 10 14 16 14 5 6 3 3 8 6 8 10 10 9 6 9 9 9 10 10 11 12 12 11 11 11 12 13 13 14 14 15 15 15 15 16 15 14 12 11 12
8 10 12 13 15 10 6 8 2 6 3 3 6 7 8 7 6 8 9 8 8 9 10 11 11 11 11 10 10 12 12 13 13 14 15 16 15 15 15 13 11 11 11 11
9 10 10 11 12 5 5 1 5 4 2 4 5 6 6 6 7 7 8 8 8 10 11 11 10 10 10 10 10 12 12 12 13 15 16 16 16 15 14 12 12 11 10 10
8 8 6 6 7 1 3 6 4 3 3 4 5 6 5 6 7 7 7 7 8 9 10 11 11 11 10 10 10 12 12 13 14 15 16 16 16 14 12 11 11 10 9 8
10 8 7 7 9 9 9 9 5 4 4 4 4 4 5 6 7 7 7 7 8 8 10 10 12 12 11 11 11 11 11 12 14 15 16 15 14 14 11 9 9 8 8 7
13 12 13 13 12 11 11 8 6 5 5 5 5 5 5 5 6 6 6 6 7 8 9 10 10 11 12 11 11 11 11 12 14 15 15 15 14 12 11 9 8 8 5 4
14 12 10 11 9 7 8 9 8 7 7 7 7 6 5 5 5 5 6 6 7 8 8 9 11 12 12 12 11 10 11 11 13 13 14 12 12 11 10 9 8 4 4 3
Wind_Direction
238 241 307 311 281 271 222 198 185 212 249 268 158 144 145 147 145 135 131 126 123 117 117 118 118 114 107 97 85 60 35 33 -0 12 348 336 337 338 318 320 64 22 5 349
286 334 303 268 257 272 273 259 160 194 329 301 189 154 144 152 145 141 140 141 138 133 132 134 137 127 114 110 99 123 42 27 358 4 322 304 323 315 296 331 21 0 7 340
188 210 244 265 280 298 321 342 325 253 238 252 240 160 136 141 141 148 144 144 139 141 139 141 139 128 125 99 19 24 36 5 5 345 319 331 325 312 317 335 322 348 335 305
318 215 237 282 305 312 324 297 286 269 253 272 235 207 175 176 177 169 158 159 154 149 152 157 180 257 307 339 351 29 23 12 358 341 336 330 316 312 321 323 329 330 311 291
303 294 289 291 301 297 278 224 299 351 342 323 5 355 228 186 190 185 174 169 165 169 175 171 243 277 315 339 346 2 11 10 358 346 330 323 316 322 321 321 314 308 296 270
306 300 293 303 302 298 297 300 17 31 20 340 282 241 231 194 194 188 180 167 172 187 211 220 259 292 323 332 340 351 360 356 352 340 326 316 316 315 311 303 294 291 288 288
305 309 312 311 320 337 312 301 317 356 56 253 239 230 215 187 171 164 154 157 166 206 259 280 320 340 344 338 344 350 350 351 346 331 318 315 313 308 296 293 305 317 318 315
289 282 291 335 337 321 299 304 306 306 293 231 191 206 143 124 110 109 103 89 332 317 352 350 352 354 350 347 350 350 347 342 334 324 315 311 301 300 306 321 325 313 302 295
317 317 290 3 330 332 328 333 330 313 315 324 149 135 111 138 147 122 36 357 356 7 356 351 355 353 356 354 352 347 345 339 332 322 311 295 298 317 316 309 299 298 302 305
331 326 336 345 290 313 329 330 341 337 339 341 69 115 141 156 69 23 356 2 10 2 355 357 353 348 351 346 345 345 345 339 328 317 315 317 325 312 304 305 302 298 294 292
345 321 318 320 356 350 340 356 355 341 346 337 358 78 103 77 34 6 360 7 7 0 354 347 345 347 344 338 338 341 337 331 325 322 319 314 310 311 306 298 297 299 301 301
353 326 330 348 8 333 322 360 352 347 342 327 331 100 83 50 51 33 12 10 8 359 348 343 343 343 339 336 335 333 331 324 322 323 320 314 312 306 302 302 303 301 298 296
347 326 318 337 343 292 299 354 350 337 311 311 326 86 165 53 41 27 15 3 355 354 349 344 343 341 335 334 331 327 323 322 324 322 318 315 312 308 306 304 302 300 297 294
293 295 307 324 337 325 320 321 336 331 327 330 341 353 3 33 18 7 358 351 351 353 352 346 343 337 333 329 327 322 320 322 321 321 317 312 309 307 305 303 300 298 296 294
290 306 318 316 317 314 314 316 318 317 317 312 327 331 13 28 6 358 351 351 346 348 345 341 336 331 330 327 323 319 318 321 323 319 314 310 308 306 303 300 299 297 295 293
246 309 311 307 307 294 290 294 281 289 297 299 309 321 19 12 0 350 343 335 336 344 339 335 332 331 328 324 318 319 319 322 321 314 311 309 307 305 303 301 298 295 295 294
293 298 305 304 306 300 300 305 274 317 321 321 316 334 8 354 344 335 328 331 350 344 336 335 334 328 323 320 321 323 321 320 318 314 311 311 310 308 305 305 304 300 297 294
259 287 295 293 301 296 306 255 279 311 319 306 304 357 6 343 344 359 38 27 353 340 339 336 329 325 324 325 325 326 321 320 319 317 316 315 313 309 306 304 300 297 295 293
228 250 282 294 295 298 307 237 208 323 312 322 3 7 344 345 329 81 54 11 353 349 338 330 325 324 324 323 329 326 320 320 319 319 319 317 313 309 306 303 301 299 297 294
224 214 251 275 288 294 305 109 111 324 338 56 24 352 341 335 322 352 13 360 356 342 332 327 326 325 323 329 329 323 322 323 323 323 319 314 309 306 303 299 299 299 297 294
228 235 245 267 278 291 71 110 279 314 53 5 349 345 333 345 325 326 335 346 343 334 330 330 331 327 327 328 328 323 323 326 327 323 317 312 309 306 300 298 301 301 299 298
283 275 269 273 280 297 115 291 329 352 340 324 331 326 332 324 314 319 331 337 336 334 333 333 329 327 327 330 330 324 327 330 327 321 317 314 312 309 308 307 305 303 300 300
286 291 295 300 314 151 255 283 301 298 282 296 306 323 325 312 312 320 327 335 334 331 333 330 330 327 328 333 333 328 331 331 326 321 319 316 312 308 305 305 307 307 306 307
307 334 309 293 288 282 284 292 286 270 255 264 289 298 295 297 307 315 324 328 329 332 328 331 329 328 329 334 334 334 334 331 324 321 319 316 313 311 312 311 308 309 313 320
298 291 280 275 275 276 275 282 278 261 239 237 254 265 270 282 293 307 318 326 329 324 327 328 327 327 328 332 331 336 337 332 325 321 318 317 316 313 314 312 309 308 324 330
285 290 294 296 302 292 290 280 260 238 236 239 245 256 265 275 289 301 312 321 318 320 326 327 328 328 327 328 330 336 336 332 325 320 319 318 317 317 317 317 318 310 283 249
Height
1478 1482 1487 1485 1478 1476 1477 1484 1497 1494 1485 1482 1484 1490 1494 1500 1503 1506 1509 1512 1514 1516 1517 1518 1518 1519 1519 1519 1518 1518 1517 1516 1514 1513 1511 1510 1509 1507 1505 1504 1501 1498 1496 1494
1478 1489 1485 1479 1472 1470 1472 1479 1489 1487 1483 1485 1486 1489 1492 1498 1501 1505 1508 1511 1513 1515 1517 1518 1519 1519 1519 1519 1518 1517 1516 1514 1513 1512 1510 1509 1507 1505 1504 1502 1499 1496 1494 1492
1483 1487 1478 1474 1469 1471 1474 1481 1486 1488 1485 1484 1490 1496 1497 1498 1503 1506 1508 1509 1511 1513 1515 1517 1518 1519 1519 1518 1517 1516 1514 1512 1511 1509 1507 1506 1504 1502 1501 1499 1497 1494 1492 1490
1474 1471 1472 1470 1471 1472 1484 1479 1479 1485 1492 1497 1497 1511 1507 1501 1502 1504 1506 1509 1510 1512 1514 1516 1517 1517 1517 1517 1516 1514 1512 1510 1508 1506 1505 1502 1501 1499 1497 1496 1494 1491 1489 1487
1478 1470 1469 1471 1470 1469 1474 1473 1479 1487 1497 1505 1512 1524 1516 1505 1505 1502 1503 1506 1508 1510 1512 1514 1515 1515 1515 1515 1514 1512 1510 1508 1505 1503 1502 1500 1497 1495 1493 1491 1489 1487 1485 1484
1479 1470 1466 1466 1465 1465 1466 1471 1481 1493 1507 1526 1524 1531 1522 1506 1503 1500 1501 1503 1507 1508 1510 1511 1512 1512 1512 1512 1511 1509 1507 1505 1503 1501 1499 1497 1494 1491 1488 1486 1484 1482 1481 1481
1490 1476 1468 1465 1467 1467 1470 1480 1500 1519 1535 1533 1516 1525 1512 1496 1493 1495 1498 1502 1504 1506 1508 1509 1510 1510 1509 1509 1508 1506 1504 1502 1500 1497 1495 1493 1490 1487 1484 1482 1480 1478 1477 1476
1502 1494 1475 1467 1470 1474 1471 1475 1499 1514 1512 1512 1513 1520 1503 1493 1494 1497 1498 1500 1503 1504 1505 1507 1507 1507 1507 1506 1505 1503 1501 1498 1496 1494 1491 1488 1486 1483 1480 1478 1476 1473 1472 1471
1490 1488 1470 1467 1468 1470 1473 1473 1469 1480 1482 1494 1504 1504 1501 1494 1494 1495 1497 1498 1500 1503 1504 1505 1506 1505 1504 1503 1502 1500 1497 1494 1492 1489 1487 1484 1481 1478 1476 1473 1470 1468 1467 1465
1475 1483 1470 1467 1466 1469 1471 1471 1475 1484 1497 1499 1496 1500 1507 1498 1494 1494 1496 1497 1500 1502 1504 1504 1504 1504 1502 1501 1499 1496 1494 1491 1488 1485 1482 1480 1477 1473 1470 1468 1465 1463 1461 1459
1474 1485 1479 1471 1474 1478 1476 1477 1480 1481 1484 1498 1501 1506 1491 1492 1493 1494 1495 1498 1500 1502 1503 1504 1503 1502 1500 1498 1496 1493 1490 1487 1484 1481 1478 1475 1471 1468 1465 1463 1460 1458 1455 1453
1476 1481 1489 1483 1475 1473 1473 1478 1481 1495 1496 1489 1491 1504 1486 1488 1490 1493 1496 1498 1500 1502 1502 1502 1501 1499 1498 1495 1493 1490 1487 1484 1481 1477 1474 1470 1467 1464 1461 1458 1455 1452 1449 1447
1485 1490 1500 1500 1496 1484 1476 1475 1477 1483 1488 1492 1496 1500 1485 1486 1490 1493 1496 1499 1500 1501 1501 1500 1499 1497 1495 1492 1490 1487 1484 1480 1477 1473 1470 1466 1462 1459 1456 1453 1449 1446 1443 1441
1489 1488 1495 1501 1493 1481 1480 1476 1476 1484 1492 1496 1492 1491 1484 1487 1491 1494 1496 1498 1499 1499 1499 1498 1496 1494 1492 1489 1486 1483 1480 1477 1473 1469 1466 1462 1458 1454 1451 1447 1444 1441 1438 1435
1487 1489 1485 1480 1475 1475 1477 1477 1478 1483 1487 1493 1491 1489 1486 1489 1491 1493 1495 1496 1497 1497 1497 1496 1494 1491 1489 1486 1483 1480 1477 1473 1469 1465 1461 1457 1454 1450 1446 1442 1438 1435 1431 1429
1485 1491 1488 1485 1477 1474 1476 1474 1476 1479 1481 1484 1485 1487 1484 1488 1491 1493 1494 1494 1495 1495 1495 1493 1491 1488 1486 1483 1479 1476 1473 1469 1465 1461 1457 1453 1449 1444 1440 1437 1433 1429 1425 1422
1484 1488 1493 1493 1480 1478 1483 1474 1474 1477 1477 1481 1487 1486 1485 1488 1491 1491 1492 1492 1493 1494 1493 1491 1488 1486 1482 1479 1476 1472 1469 1465 1461 1457 1452 1448 1444 1439 1435 1431 1427 1423 1419 1415
1486 1490 1492 1491 1488 1500 1479 1467 1470 1476 1478 1478 1480 1482 1486 1488 1489 1490 1490 1492 1493 1492 1490 1488 1485 1482 1479 1476 1473 1469 1465 1461 1457 1452 1448 1443 1439 1434 1429 1425 1420 1416 1413 1409
1479 1486 1491 1494 1494 1486 1474 1469 1471 1478 1480 1476 1479 1484 1486 1487 1488 1490 1491 1491 1491 1490 1488 1485 1482 1479 1476 1472 1469 1465 1461 1457 1453 1448 1443 1438 1433 1428 1423 1419 1415 1410 1406 1402
1476 1480 1489 1491 1497 1497 1475 1466 1471 1477 1481 1481 1482 1485 1486 1486 1487 1487 1489 1489 1488 1487 1485 1482 1479 1476 1473 1469 1465 1461 1457 1453 1448 1443 1438 1433 1428 1423 1418 1413 1409 1405 1401 1396
1481 1483 1486 1488 1489 1478 1468 1470 1473 1483 1487 1483 1483 1485 1486 1486 1489 1489 1488 1487 1486 1484 1482 1479 1476 1473 1469 1466 1462 1457 1453 1449 1444 1438 1433 1428 1423 1418 1413 1409 1405 1400 1395 1391
1476 1479 1480 1480 1486 1485 1472 1472 1475 1480 1479 1480 1482 1483 1484 1485 1486 1486 1485 1484 1483 1481 1479 1476 1473 1470 1466 1462 1458 1454 1450 1445 1439 1434 1428 1423 1418 1414 1409 1405 1400 1396 1391 1387
1467 1467 1469 1473 1477 1473 1471 1471 1472 1474 1476 1479 1480 1481 1482 1483 1483 1483 1482 1481 1480 1478 1476 1473 1470 1466 1463 1459 1455 1451 1446 1441 1435 1429 1424 1419 1414 1409 1405 1401 1397 1392 1388 1383
1465 1463 1466 1469 1467 1467 1467 1467 1468 1471 1473 1476 1478 1479 1480 1480 1480 1480 1480 1479 1477 1475 1473 1470 1467 1463 1460 1456 1452 1447 1442 1437 1431 1426 1420 1415 1410 1406 1402 1398 1394 1390 1385 1381
1466 1466 1465 1465 1463 1463 1463 1464 1465 1468 1470 1472 1474 1476 1476 1477 1477 1477 1477 1476 1474 1472 1470 1467 1464 1460 1456 1452 1448 1444 1439 1433 1428 1422 1417 1412 1408 1404 1399 1395 1391 1387 1383 1379
1461 1460 1461 1461 1459 1460 1461 1462 1463 1464 1467 1469 1471 1472 1473 1474 1474 1474 1474 1473 1471 1469 1467 1464 1461 1457 1453 1449 1445 1440 1435 1430 1425 1419 1414 1410 1406 1402 1398 1393 1389 1385 1381 1377